EW9592 Weather Reports


Display with metric or nautical units.
time (UTC)temp
F
wind
direction
speed
MPH
gust
MPH
rain 1hr
in
rain 24hr
in
rain mn
in
humidity
%
barometer
mb
20260901113054 68 186 0.0 0.0 0.00 0.00 0.00 92 1019.2
20260901111540 68 185 0.0 0.0 0.00 0.00 0.00 92 1019.0
20260901110048 68 185 0.0 0.0 0.00 0.00 0.00 92 1018.7
20260901104538 69 186 0.0 0.0 0.00 0.00 0.00 92 1018.6
20260901103043 69 185 0.0 0.0 0.00 0.00 0.00 92 1018.5
20260901101537 69 185 0.0 0.0 0.00 0.00 0.00 92 1018.4
20260901100033 69 186 0.0 0.0 0.00 0.00 0.00 92 1018.3
20260901094533 69 186 0.0 0.0 0.00 0.00 0.00 92 1018.1
20260901093032 69 186 0.0 0.0 0.00 0.00 0.00 92 1017.9
20260901091531 69 186 0.0 0.0 0.00 0.00 0.00 92 1017.8
20260901090030 69 186 0.0 0.0 0.00 0.00 0.00 92 1017.7
20260901084530 70 186 0.0 0.0 0.00 0.00 0.00 92 1017.6
20260901083029 70 186 0.0 0.0 0.00 0.00 0.00 92 1017.7
20260901081528 70 185 0.0 0.0 0.00 0.00 0.00 92 1017.5
20260901080036 70 186 0.0 0.0 0.00 0.00 0.00 92 1017.4
20260901074527 70 185 0.0 0.0 0.00 0.00 0.00 92 1017.4
20260901073025 70 186 0.0 0.0 0.00 0.00 0.00 91 1017.4
20260901071524 70 186 0.0 0.0 0.00 0.00 0.00 91 1017.5
20260901070022 70 186 0.0 0.0 0.00 0.00 0.00 91 1017.7
20260901064525 71 185 0.0 0.0 0.00 0.00 0.00 91 1017.9
20260901063041 71 186 0.0 0.0 0.00 0.00 0.00 91 1017.9
20260901061517 71 186 0.0 0.0 0.00 0.00 0.00 91 1018.1
20260901060016 71 186 0.0 0.0 0.00 0.00 0.00 91 1018.2
20260901054515 71 186 0.0 0.0 0.00 0.00 0.00 91 1018.2
20260901053013 71 186 0.0 0.0 0.00 0.00 0.00 91 1018.3
20260901051511 72 186 0.0 0.0 0.00 0.00 0.00 91 1018.4
20260901050011 72 186 0.0 0.0 0.00 0.00 0.00 91 1018.4
20260901044510 72 186 0.0 0.0 0.00 0.00 0.00 91 1018.4
20260901043007 72 186 0.0 0.0 0.00 0.00 0.00 91 1018.3
20260901041501 72 186 0.0 0.0 0.00 0.00 0.00 91 1018.3
20260901040058 73 186 0.0 0.0 0.00 0.00 0.00 91 1018.3
20260901034557 73 186 0.0 0.0 0.00 0.00 0.00 91 1018.2
20260901033059 73 186 0.0 0.0 0.00 0.00 0.00 91 1018.2
20260901031556 73 186 0.0 0.0 0.00 0.00 0.00 91 1018.1
20260901030055 74 186 0.0 0.0 0.00 0.00 0.00 91 1018.1
20260901024555 74 185 0.0 0.0 0.00 0.00 0.00 90 1018.1
20260901023054 74 186 0.0 0.0 0.00 0.00 0.00 90 1018.1
20260901021554 74 186 0.0 0.0 0.00 0.00 0.00 90 1018.0
20260901020056 75 186 0.0 0.0 0.00 0.00 0.00 90 1017.8
20260901014554 75 186 0.0 0.0 0.00 0.00 0.00 90 1017.5
20260901013102 76 186 0.0 0.0 0.00 0.00 0.00 90 1017.4
20260901011552 76 186 0.0 0.0 0.00 0.00 0.00 89 1017.3
20260901010056 77 186 0.0 0.0 0.00 0.00 0.00 89 1017.1
20260901004552 78 186 0.0 0.0 0.00 0.00 0.00 89 1017.1
20260901003051 79 186 0.0 0.0 0.00 0.00 0.00 88 1017.1
20260901001550 80 186 0.0 0.0 0.00 0.00 0.00 88 1017.0
20260901000049 81 186 0.0 0.0 0.00 0.00 0.00 87 1017.0
20260831234553 81 186 0.0 0.0 0.00 0.00 0.00 86 1017.1
20260831233054 82 186 0.0 0.0 0.00 0.00 0.00 85 1017.1
20260831231550 83 186 0.0 0.0 0.00 0.00 0.00 84 1017.1
20260831230047 83 186 0.0 0.0 0.00 0.00 0.00 84 1017.0
20260831224546 84 186 0.0 0.0 0.00 0.00 0.00 84 1017.1
20260831223053 84 186 0.0 0.0 0.00 0.00 0.00 83 1017.2
20260831221544 85 186 0.0 0.0 0.00 0.00 0.00 84 1017.4
20260831220046 85 276 0.0 2.0 0.00 0.00 0.00 84 1017.5
20260831214556 84 135 0.0 0.0 0.00 0.00 0.00 84 1017.7
20260831213040 84 135 0.0 0.0 0.00 0.00 0.00 81 1017.7
20260831211543 85 135 0.0 0.0 0.00 0.00 0.00 82 1017.8
20260831210040 86 136 0.0 0.0 0.00 0.00 0.00 79 1017.8
20260831204538 87 136 0.0 0.0 0.00 0.00 0.00 75 1018.0
20260831203037 88 136 0.0 0.0 0.00 0.00 0.00 73 1018.1
20260831201537 89 135 0.0 1.0 0.00 0.00 0.00 69 1018.2
20260831200036 90 128 0.0 3.0 0.00 0.00 0.00 62 1018.4
20260831194536 91 30 0.0 2.0 0.00 0.00 0.00 61 1018.5
20260831193101 91 102 0.0 2.0 0.00 0.00 0.00 64 1018.7
20260831191530 90 211 0.0 2.0 0.00 0.00 0.00 66 1018.8
20260831190030 90 134 0.0 2.0 0.00 0.00 0.00 66 1018.9
20260831184525 89 105 0.0 3.0 0.00 0.00 0.00 67 1019.0
20260831183024 89 257 0.0 3.0 0.00 0.00 0.00 69 1019.3
20260831181541 88 51 0.0 2.0 0.00 0.00 0.00 69 1019.4
20260831180032 88 8 0.0 1.0 0.00 0.00 0.00 69 1019.5
20260831174522 89 82 0.0 2.0 0.00 0.00 0.00 69 1019.5
20260831173021 89 346 0.0 2.0 0.00 0.00 0.00 68 1019.7
20260831171521 89 40 1.0 3.0 0.00 0.00 0.00 66 1019.8
20260831170018 88 121 0.0 3.0 0.00 0.00 0.00 71 1019.9
20260831164520 89 40 0.0 3.0 0.00 0.00 0.00 67 1020.0
20260831163016 89 269 0.0 2.0 0.00 0.00 0.00 69 1020.2
20260831161517 88 46 0.0 3.0 0.00 0.00 0.00 69 1020.1
20260831160014 87 177 0.0 1.0 0.00 0.00 0.00 73 1020.1
20260831154506 86 41 0.0 2.0 0.00 0.00 0.00 73 1020.1
20260831153100 85 121 0.0 3.0 0.00 0.00 0.00 77 1020.1
20260831151557 83 23 0.0 2.0 0.00 0.00 0.00 79 1020.2
20260831144556 80 122 0.0 2.0 0.00 0.00 0.00 88 1020.4
20260831143046 78 101 0.0 1.0 0.00 0.00 0.00 89 1020.3
20260831141540 77 83 0.0 1.0 0.00 0.00 0.00 91 1020.1
20260831140037 75 139 0.0 0.0 0.00 0.00 0.00 91 1020.1
20260831134534 74 143 0.0 1.0 0.00 0.00 0.00 92 1020.1
20260831133028 73 146 0.0 0.0 0.00 0.00 0.00 92 1020.1
20260831131544 72 146 0.0 2.0 0.00 0.00 0.00 92 1020.0
20260831130038 70 149 0.0 0.0 0.00 0.00 0.00 92 1020.0
20260831124526 70 148 0.0 0.0 0.00 0.00 0.00 92 1019.9
20260831123025 69 148 0.0 0.0 0.00 0.00 0.00 92 1019.8
20260831121527 69 149 0.0 0.0 0.00 0.00 0.00 92 1019.7
20260831120019 69 149 0.0 0.0 0.00 0.00 0.00 92 1019.5
20260831114518 69 149 0.0 0.0 0.00 0.00 0.00 92 1019.4